Hourly Data Report for October 25, 2016

All times are specified in Local Standard Time (LST). Add 1 hour to adjust for Daylight Saving Time where and when it is observed.

PETAWAWA AWOS 2
ONTARIO

45°57'00.000" N
77°19'00.000" W
130.10 m
6106396
71625
YWA

Download Data

Hourly Data (October 2016)
Hourly Data Report for October 25, 2016
Temp Definition
°C
Dew Point Temp Definition
°C
Rel Hum Definition
%
Wind Dir Definition
10's deg

Wind Spd Definition
km/h
Visibility Definition
km
Stn Press Definition
kPa
Hmdx Definition


Wind Chill Definition


Weather Definition


TIME
00:00 2.1 -5.6 57 32 19 14.5 100.48     LegendNANA
01:00 2.1 -5.8 56 31 20 14.5 100.50     LegendNANA
02:00 1.9 -5.3 59 31 17 14.5 100.53     LegendNANA
03:00 1.9 -5.1 60 30 11 14.5 100.56     LegendNANA
04:00 1.6 -5.2 61 30 13 14.5 100.61     LegendNANA
05:00 1.6 -5.4 60 31 17 14.5 100.68     LegendNANA
06:00 1.7 -5.1 61 31 15 14.5 100.73     LegendNANA
07:00 1.6 -4.8 62 30 19 14.5 100.79     LegendNANA
08:00 2.2 -4.5 61 32 22 14.5 100.85     Snow
09:00 3.1 -3.9 60 30 26 14.5 100.86     Snow
10:00 3.4 -4.1 58 32 17 14.5 100.88     Snow
11:00 4.3 -3.9 55 32 22 14.5 100.89     Snow
12:00 4.8 -3.2 56 30 22 14.5 100.90     Snow
13:00 4.8 -2.5 59 30 17 14.5 100.91     Snow
14:00 3.4 0.0 78 32 24 12.9 100.96     Snow
15:00 5.8 -3.0 53 32 22 14.5 100.96     LegendNANA
16:00 4.3 -1.7 65 34 22 11.3 101.01     Snow
17:00 3.7 -2.4 64 32 24 14.5 101.09     Snow
18:00 2.5 -1.2 76 31 13 14.5 101.19     LegendNANA
19:00 1.6 -0.9 83 30 13 14.5 101.26     LegendNANA
20:00 1.6 -0.7 85 30 15 14.5 101.31     LegendNANA
21:00 1.6 -0.9 83 30 13 14.5 101.34     LegendNANA
22:00 1.3 -0.9 85 31 11 14.5 101.38     LegendNANA
23:00 1.0 -1.5 83 35 17 14.5 101.40     Snow

Notes on Data Quality.

Legend

  • E = Estimated
  • M = Missing
  • NA = Not Available
  • ‡ = Partner data that is not subject to review by the National Climate Archives
Date modified: